File timestamp: Sun Sep 11 03:00:00 2016, Internal temp: 16.7083740234375
1473562801, 0.105906791985035, -0.134762361645699, 0.172668725252151, 32157, 31397, 23425, 77.3824157714844
1473562801, 0.156592547893524, -0.134350791573524, 0.17309096455574, 32155, 31368, 23429, NaN
1473562802.002, 0.141773849725723, -0.133662477135658, 0.173019453883171, 32155, 31392, 23435, NaN
1473562803.002, 0.0911601930856705, -0.133355930447578, 0.172811567783356, 32153, 31368, 23436, NaN
1473562804.002, 0.0483143106102943, -0.132650554180145, 0.173115119338036, 32151, 31382, 23432, NaN
1473562805.002, 0.0125828795135021, -0.132622674107552, 0.172809571027756, 32154, 31392, 23431, NaN
1473562805.002, -0.0166719052940607, -0.133055865764618, 0.173301741480827, 32153, 31381, 23430, NaN
1473562806.002, -0.0400698743760586, -0.133529901504517, 0.173089236021042, 32170, 31373, 23423, NaN
1473562806.972, -0.0582103841006756, -0.133587464690208, 0.17234143614769, 32150, 31379, 23425, NaN
1473562807.972, -0.07166987657547, -0.133729755878448, 0.171672344207764, 32154, 31383, 23438, NaN
1473562808.972, -0.0809995979070663, -0.134003967046738, 0.172497287392616, 32151, 31381, 23435, NaN
1473562809.972, -0.0867235139012337, -0.133844897150993, 0.172405317425728, 32152, 31385, 23429, NaN
1473562810.98, -0.0893365517258644, -0.134377717971802, 0.172311589121819, 32144, 31378, 23440, NaN
1473562811.98, -0.0893031135201454, -0.134288296103477, 0.172004073858261, 32143, 31379, 23435, NaN
1473562812.98, -0.0870559513568878, -0.134850949048996, 0.171853721141815, 32136, 31383, 23432, NaN
1473562812.98, -0.0829953700304031, -0.134588405489922, 0.172824591398239, 32150, 31379, 23430, NaN
1473562813.988, -0.0774888247251511, -0.135722637176514, 0.1726945489645, 32149, 31391, 23418, NaN
1473562814.988, -0.0708708018064499, -0.13588373363018, 0.173188328742981, 32150, 31378, 23423, NaN
1473562815.988, -0.0634430646896362, -0.135643765330315, 0.173157125711441, 32145, 31380, 23428, NaN
1473562816.988, -0.0554751865565777, -0.136310175061226, 0.173110499978065, 32151, 31381, 23429, NaN
1473562817.988, -0.0472053661942482, -0.135690435767174, 0.172941878437996, 32155, 31395, 23428, NaN
1473562818.988, -0.0388414971530437, -0.135980933904648, 0.172896057367325, 32147, 31383, 23439, NaN
1473562819.988, -0.0305624604225159, -0.136345416307449, 0.173056706786156, 32150, 31379, 23437, NaN
1473562820.988, -0.0225195679813623, -0.136378452181816, 0.172809883952141, 32148, 31370, 23447, NaN
1473562821.988, -0.0148382093757391, -0.136424914002419, 0.172828495502472, 32149, 31374, 23431, NaN
1473562822.988, -0.00761958118528128, -0.136368200182915, 0.172157168388367, 32146, 31380, 23426, NaN
1473562823.988, -0.000942524580750614, -0.137060314416885, 0.17269466817379, 32163, 31378, 23425, NaN
1473562824.988, 0.00513458531349897, -0.136706665158272, 0.172441437840462, 32144, 31388, 23440, NaN
1473562825.988, 0.0105719184502959, -0.137061014771461, 0.172940880060196, 32138, 31390, 23451, NaN
1473562826.988, 0.0153462644666433, -0.137660264968872, 0.173359915614128, 32148, 31379, 23430, NaN
1473562827.988, 0.0194491241127253, -0.137537971138954, 0.173305347561836, 32151, 31391, 23435, NaN
1473562828.988, 0.022884851321578, -0.13719317317009, 0.172438591718674, 32168, 31386, 23434, NaN
1473562829.988, 0.0256688371300697, -0.136893913149834, 0.172722056508064, 32149, 31380, 23444, NaN
1473562830.988, 0.0278257876634598, -0.136611700057983, 0.172836437821388, 32154, 31381, 23430, NaN
1473562831.988, 0.0289697647094727, -0.138098150491714, 0.172062292695045, 32146, 31382, 23433, NaN
1473562832.988, 0.0261042956262827, -0.13853619992733, 0.172138944268227, 32141, 31390, 23441, NaN
1473562833.988, 0.0189665984362364, -0.138355880975723, 0.17194128036499, 32154, 31389, 23432, NaN
1473562834.988, 0.00907234754413366, -0.138203889131546, 0.172211021184921, 32161, 31390, 23424, NaN
1473562835.988, -0.000733869266696274, -0.138832807540894, 0.172808334231377, 32150, 31379, 23431, NaN
1473562836.988, -0.0103882858529687, -0.138708487153053, 0.172749117016792, 32154, 31385, 23440, NaN
1473562837.988, -0.0186118129640818, -0.138916298747063, 0.173096597194672, 32160, 31387, 23426, NaN
1473562838.996, -0.0251006484031677, -0.140122219920158, 0.173353761434555, 32147, 31394, 23438, NaN
1473562839.996, -0.0293611250817776, -0.140312165021896, 0.172978729009628, 32141, 31387, 23436, NaN
1473562840.996, -0.0315728448331356, -0.140055298805237, 0.172171115875244, 32151, 31387, 23426, NaN
1473562841.996, -0.0315949656069279, -0.140471577644348, 0.171495914459229, 32158, 31388, 23424, NaN
1473562841.996, -0.0293832346796989, -0.140295326709747, 0.17147333920002, 32149, 31381, 23429, NaN
1473562843.004, -0.0256501249969006, -0.140478491783142, 0.171683564782143, 32149, 31374, 23422, NaN
1473562844.004, -0.0202963072806597, -0.140814855694771, 0.172192379832268, 32140, 31377, 23435, NaN
1473562845.004, -0.0127428034320474, -0.140850737690926, 0.172412797808647, 32153, 31385, 23444, NaN
1473562846.004, -0.00437175622209907, -0.14129750430584, 0.171937704086304, 32150, 31385, 23442, NaN
1473562846.004, 0.00469686929136515, -0.141252666711807, 0.17095260322094, 32152, 31379, 23436, NaN
1473562847.01, 0.0128342965617776, -0.141240775585175, 0.170702010393143, 32160, 31378, 23429, NaN
1473562848.01, 0.0205216724425554, -0.141269326210022, 0.169863119721413, 32152, 31387, 23439, NaN
1473562849.01, 0.0283161364495754, -0.142054811120033, 0.169358029961586, 32160, 31384, 23424, NaN
1473562850.01, 0.0358209721744061, -0.141593366861343, 0.169585540890694, 32140, 31373, 23445, NaN
1473562850.01, 0.0429883636534214, -0.142508253455162, 0.168793633580208, 32145, 31379, 23427, NaN
1473562851.014, 0.0495203621685505, -0.142190903425217, 0.168508023023605, 32146, 31385, 23429, NaN
1473562852.014, 0.0557191409170628, -0.141760617494583, 0.168945595622063, 32149, 31391, 23433, NaN
1473562853.014, 0.060498908162117, -0.141826808452606, 0.169228106737137, 32146, 31389, 23440, NaN
1473562854.014, 0.0640721023082733, -0.142353504896164, 0.169265523552895, 32154, 31391, 23427, NaN
1473562854.014, 0.0669823959469795, -0.142402291297913, 0.169290691614151, 32145, 31390, 23430, 78.0032958984375
1473562855.016, 0.0680180713534355, -0.141987800598145, 0.168731227517128, 32159, 31383, 23430, NaN
1473562856.016, 0.0681469142436981, -0.14197601377964, 0.168653011322021, 32153, 31376, 23429, NaN
1473562857.016, 0.0667909756302834, -0.141380339860916, 0.168840259313583, 32153, 31389, 23423, NaN
1473562858.016, 0.0645512267947197, -0.140705198049545, 0.169427677989006, 32143, 31381, 23438, NaN
1473562858.016, 0.061361875385046, -0.140589252114296, 0.16986395418644, 32157, 31386, 23431, NaN
1473562859.016, 0.0572831779718399, -0.140251457691193, 0.170090481638908, 32155, 31375, 23427, NaN
1473562860.016, 0.0526010096073151, -0.139817550778389, 0.169968858361244, 32148, 31379, 23431, NaN
1473562861.016, 0.0477204173803329, -0.140038475394249, 0.170304238796234, 32152, 31383, 23432, NaN
1473562862.016, 0.0417965054512024, -0.140081226825714, 0.170424103736877, 32149, 31371, 23434, NaN
1473562863.026, 0.0357676111161709, -0.140143811702728, 0.17099104821682, 32159, 31379, 23421, NaN
1473562864.026, 0.0295429471880198, -0.140562921762466, 0.172158002853394, 32148, 31378, 23431, NaN
1473562865.026, 0.0223062764853239, -0.14097785949707, 0.171781450510025, 32153, 31387, 23424, NaN
1473562866.026, 0.0152307329699397, -0.141249403357506, 0.171907216310501, 32146, 31379, 23438, NaN
1473562867.026, 0.00825371406972408, -0.140520304441452, 0.171679556369781, 32138, 31378, 23434, NaN
1473562868.026, 0.00108276959508657, -0.140142351388931, 0.170823335647583, 32147, 31374, 23429, NaN
1473562869.026, -0.00555352540686727, -0.139638274908066, 0.17117914557457, 32150, 31379, 23453, NaN
1473562870.026, -0.0116238864138722, -0.140280663967133, 0.170802444219589, 32151, 31390, 23425, NaN
1473562871.026, -0.016972977668047, -0.140135437250137, 0.170860663056374, 32149, 31378, 23447, NaN
1473562872.026, -0.0220411997288465, -0.140260949730873, 0.170462921261787, 32151, 31387, 23430, NaN
1473562873.026, -0.0265524871647358, -0.140451818704605, 0.17026823759079, 32149, 31376, 23432, NaN
1473562874.026, -0.0302297938615084, -0.140555247664452, 0.170238792896271, 32152, 31375, 23424, NaN
1473562875.026, -0.0334537364542484, -0.140907675027847, 0.171198323369026, 32147, 31388, 23445, NaN
1473562876.026, -0.0359723009169102, -0.141295194625854, 0.17093400657177, 32144, 31385, 23432, NaN
1473562877.026, -0.0376989841461182, -0.14083956182003, 0.171479314565659, 32157, 31382, 23431, NaN
1473562878.026, -0.0378916971385479, -0.141434043645859, 0.171846777200699, 32148, 31395, 23430, NaN
1473562879.026, -0.0377678945660591, -0.141912892460823, 0.171765625476837, 32151, 31394, 23437, NaN
1473562880.026, -0.0381773002445698, -0.141800686717033, 0.172752097249031, 32150, 31373, 23441, NaN
1473562881.026, -0.0382663197815418, -0.141828596591949, 0.172390818595886, 32151, 31391, 23424, NaN
1473562882.026, -0.0376490540802479, -0.14174447953701, 0.171890631318092, 32149, 31382, 23432, NaN
1473562883.026, -0.0370224267244339, -0.14160580933094, 0.17172284424305, 32141, 31385, 23442, NaN
1473562884.026, -0.0363999120891094, -0.141262203454971, 0.171574532985687, 32152, 31378, 23436, NaN
1473562885.026, -0.0349416323006153, -0.141339033842087, 0.171436175704002, 32146, 31389, 23433, NaN
1473562886.026, -0.0329437591135502, -0.141597658395767, 0.172262132167816, 32153, 31382, 23431, NaN
1473562887.026, -0.0296305622905493, -0.141951933503151, 0.172605246305466, 32144, 31383, 23437, NaN
1473562888.026, -0.0233409553766251, -0.141501009464264, 0.172889053821564, 32162, 31382, 23434, NaN
1473562889.026, -0.012006570585072, -0.141060069203377, 0.172839611768723, 32145, 31374, 23440, NaN
1473562890.026, 0.00664265686646104, -0.141179710626602, 0.172897920012474, 32154, 31393, 23439, NaN
1473562891.026, 0.0328097008168697, -0.141525194048882, 0.17274098098278, 32157, 31386, 23422, NaN
1473562892.026, 0.0652806311845779, -0.141281738877296, 0.172780245542526, 32153, 31387, 23438, NaN
1473562893.034, 0.102159634232521, -0.141559943556786, 0.173673614859581, 32147, 31386, 23429, NaN
1473562894.034, 0.142458945512772, -0.141449958086014, 0.173972427845001, 32149, 31378, 23436, NaN
1473562895.034, 0.162294507026672, -0.140698164701462, 0.173895359039307, 32153, 31384, 23435, NaN
1473562896.034, 0.108580365777016, -0.140710517764091, 0.173810511827469, 32141, 31376, 23430, NaN
1473562896.034, 0.062879666686058, -0.140845760703087, 0.173812463879585, 32139, 31370, 23448, NaN
1473562897.042, 0.0245361179113388, -0.141937926411629, 0.173548981547356, 32155, 31385, 23430, NaN
1473562898.042, -0.00709238136187196, -0.141700088977814, 0.173575147986412, 32157, 31392, 23430, NaN
1473562899.042, -0.0326312780380249, -0.14179253578186, 0.173182666301727, 32161, 31378, 23442, NaN
1473562900.042, -0.0526868440210819, -0.141814917325974, 0.173983991146088, 32154, 31385, 23442, NaN
1473562900.042, -0.0678436532616615, -0.141728013753891, 0.173624753952026, 32158, 31385, 23427, NaN
1473562901.048, -0.078662171959877, -0.140668362379074, 0.174177840352058, 32147, 31395, 23454, NaN
1473562902.048, -0.0856765881180763, -0.140081778168678, 0.173583701252937, 32143, 31378, 23441, NaN
1473562903.048, -0.0893928557634354, -0.140334904193878, 0.173520267009735, 32153, 31390, 23439, NaN
1473562904.048, -0.0902871042490005, -0.139897882938385, 0.17301881313324, 32150, 31395, 23426, NaN
1473562904.048, -0.088804304599762, -0.14018751680851, 0.173033356666565, 32151, 31387, 23435, NaN
1473562905.052, -0.0853573530912399, -0.141438707709312, 0.172728955745697, 32146, 31390, 23441, NaN
1473562906.052, -0.0803264975547791, -0.141561910510063, 0.172139912843704, 32145, 31388, 23441, NaN
1473562907.052, -0.0740590468049049, -0.141443014144897, 0.172859728336334, 32136, 31374, 23442, NaN
1473562908.052, -0.0668695345520973, -0.1412293612957, 0.172218710184097, 32146, 31382, 23439, NaN
1473562908.052, -0.0590400546789169, -0.141685128211975, 0.171784982085228, 32151, 31381, 23435, NaN
1473562909.054, -0.0508210249245167, -0.141291439533234, 0.171889156103134, 32150, 31389, 23427, 77.6272201538086
1473562910.054, -0.0424321107566357, -0.141970992088318, 0.171695545315742, 32149, 31388, 23428, NaN
1473562911.054, -0.0340634249150753, -0.141980901360512, 0.172017052769661, 32149, 31379, 23440, NaN
1473562912.054, -0.0258769430220127, -0.141643241047859, 0.171036645770073, 32147, 31385, 23430, NaN
1473562913.054, -0.0180080402642488, -0.141408756375313, 0.169734716415405, 32151, 31376, 23441, NaN
1473562914.054, -0.0105672022327781, -0.141162678599358, 0.170493304729462, 32148, 31391, 23428, NaN
1473562915.054, -0.00364181795157492, -0.140916883945465, 0.170781537890434, 32143, 31378, 23434, NaN
1473562916.054, 0.00270194956101477, -0.140424177050591, 0.17130021750927, 32149, 31385, 23430, NaN
1473562917.054, 0.00841724965721369, -0.140738755464554, 0.17094948887825, 32150, 31388, 23432, NaN
1473562918.062, 0.0178600698709488, -0.140582457184792, 0.17100091278553, 32147, 31382, 23430, NaN
1473562919.062, 0.0215731915086508, -0.140053808689117, 0.170578807592392, 32152, 31385, 23438, NaN
1473562920.062, 0.0246253367513418, -0.140164375305176, 0.170438542962074, 32159, 31387, 23438, NaN
1473562921.062, 0.0263170562684536, -0.140856921672821, 0.170324131846428, 32149, 31378, 23429, NaN
1473562922.062, 0.0244639869779348, -0.140174850821495, 0.169809550046921, 32167, 31384, 23431, NaN
1473562923.062, 0.0204077176749706, -0.139774560928345, 0.16950124502182, 32157, 31382, 23438, NaN
1473562924.062, 0.0152205480262637, -0.14076954126358, 0.169587895274162, 32145, 31392, 23423, NaN
1473562925.062, 0.00944270007312298, -0.139721035957336, 0.16904105246067, 32147, 31381, 23435, NaN
1473562926.062, 0.00502317259088159, -0.139670208096504, 0.168992146849632, 32165, 31384, 23430, NaN
1473562927.062, 0.00119827850721776, -0.140173450112343, 0.168804809451103, 32146, 31392, 23440, NaN
1473562928.062, -0.00255266902968287, -0.140104398131371, 0.168109223246574, 32168, 31394, 23430, NaN
1473562929.062, -0.00673153763636947, -0.140054017305374, 0.167766273021698, 32156, 31384, 23430, NaN
1473562930.062, -0.010326100513339, -0.140065565705299, 0.167580768465996, 32163, 31382, 23431, NaN
1473562931.062, -0.0130082722753286, -0.139438927173615, 0.167453572154045, 32145, 31393, 23441, NaN
1473562932.062, -0.0141500439494848, -0.139636501669884, 0.167142882943153, 32151, 31387, 23435, NaN
1473562933.062, -0.0133734121918678, -0.139499574899673, 0.166960224509239, 32146, 31389, 23436, NaN
1473562934.062, -0.0114870769903064, -0.139887109398842, 0.166363894939423, 32153, 31376, 23436, NaN
1473562935.062, -0.00868997815996408, -0.139470681548119, 0.166805982589722, 32159, 31372, 23429, NaN
1473562936.062, -0.0039424654096365, -0.138826861977577, 0.166917115449905, 32158, 31389, 23429, NaN
1473562937.062, 0.00222942722029984, -0.138546794652939, 0.166999131441116, 32141, 31388, 23430, NaN
1473562938.062, 0.00958026107400656, -0.139803618192673, 0.167133674025536, 32142, 31375, 23438, NaN
1473562939.062, 0.0184037275612354, -0.13930182158947, 0.166841849684715, 32139, 31381, 23430, NaN
1473562940.062, 0.0282054282724857, -0.138992503285408, 0.167204588651657, 32151, 31384, 23432, NaN
1473562941.062, 0.0391833074390888, -0.138673856854439, 0.16756796836853, 32141, 31381, 23438, NaN
1473562942.062, 0.0509755872189999, -0.139157935976982, 0.167187631130219, 32147, 31385, 23433, NaN
1473562943.062, 0.0625038370490074, -0.139876365661621, 0.166087165474892, 32146, 31384, 23433, NaN
1473562944.062, 0.0734467580914497, -0.14033155143261, 0.166758418083191, 32138, 31390, 23443, NaN
1473562945.062, 0.0834816843271255, -0.139532685279846, 0.166510835289955, 32141, 31383, 23425, NaN
1473562946.062, 0.0923046693205833, -0.140004500746727, 0.166541561484337, 32144, 31380, 23436, NaN
1473562947.07, 0.0999339744448662, -0.140122562646866, 0.166582107543945, 32150, 31374, 23430, NaN
1473562948.07, 0.105528488755226, -0.140267625451088, 0.166754364967346, 32129, 31388, 23444, NaN
1473562949.07, 0.110335133969784, -0.139568746089935, 0.167276158928871, 32147, 31385, 23432, NaN
1473562950.07, 0.113656587898731, -0.138858377933502, 0.16643138229847, 32147, 31390, 23442, NaN
1473562950.07, 0.11529279500246, -0.138824075460434, 0.167522102594376, 32143, 31374, 23433, NaN
1473562951.078, 0.11584348231554, -0.138510808348656, 0.167438939213753, 32155, 31385, 23430, NaN
1473562952.078, 0.114632345736027, -0.137719795107841, 0.167341813445091, 32153, 31383, 23425, NaN
1473562953.078, 0.111816674470901, -0.137348860502243, 0.167124435305595, 32134, 31381, 23437, NaN
1473562954.078, 0.107092678546906, -0.137027576565742, 0.16699206829071, 32151, 31384, 23436, NaN
1473562954.078, 0.100084438920021, -0.136549234390259, 0.166335374116898, 32160, 31388, 23419, NaN
1473562955.084, 0.0912264361977577, -0.135990723967552, 0.166206851601601, 32154, 31378, 23429, NaN
1473562956.084, 0.0808886513113976, -0.136395394802094, 0.166530475020409, 32146, 31377, 23438, NaN
1473562957.084, 0.0698828920722008, -0.135726451873779, 0.167059391736984, 32144, 31376, 23425, NaN
1473562958.084, 0.05857278034091, -0.135919615626335, 0.166952058672905, 32148, 31384, 23428, NaN
1473562958.084, 0.0467484444379807, -0.135957255959511, 0.167818903923035, 32163, 31383, 23431, NaN
1473562959.088, 0.0352069102227688, -0.136124804615974, 0.167336404323578, 32158, 31384, 23420, NaN
1473562960.088, 0.0244610272347927, -0.13590931892395, 0.167280524969101, 32142, 31364, 23441, NaN
1473562961.088, 0.0135410372167826, -0.135907933115959, 0.167209625244141, 32135, 31392, 23444, NaN
1473562962.088, 0.00473455339670181, -0.136059686541557, 0.167641520500183, 32155, 31382, 23441, NaN
1473562963.088, -0.002407883759588, -0.135088697075844, 0.167779982089996, 32146, 31374, 23436, NaN
1473562964.088, -0.00819292850792408, -0.134908139705658, 0.168020203709602, 32153, 31398, 23431, NaN
1473562965.088, -0.0129720000550151, -0.134498462080956, 0.168577551841736, 32154, 31388, 23426, 78.8968276977539
1473562966.088, -0.0174292661249638, -0.134586915373802, 0.168368950486183, 32165, 31386, 23409, NaN
1473562967.088, -0.0210959147661924, -0.134070739150047, 0.168680101633072, 32150, 31397, 23431, NaN
1473562968.088, -0.0249056685715914, -0.133390784263611, 0.168129846453667, 32157, 31390, 23426, NaN
1473562969.088, -0.0283433627337217, -0.133706048130989, 0.168112963438034, 32158, 31384, 23426, NaN
1473562970.088, -0.031139925122261, -0.132930383086205, 0.167469903826714, 32140, 31394, 23435, NaN
1473562971.088, -0.0331752859055996, -0.133164316415787, 0.168390482664108, 32148, 31384, 23439, NaN
1473562972.098, -0.0348577275872231, -0.133078694343567, 0.168811544775963, 32151, 31379, 23424, NaN
1473562972.098, -0.035124059766531, -0.133640244603157, 0.168406248092651, 32152, 31389, 23424, NaN
1473562973.106, -0.0340457260608673, -0.133664101362228, 0.16863152384758, 32141, 31373, 23443, NaN
1473562974.106, -0.0332362838089466, -0.133917823433876, 0.16811004281044, 32141, 31378, 23424, NaN
1473562975.106, -0.0311708692461252, -0.134587556123734, 0.167975634336472, 32149, 31384, 23433, NaN
1473562976.106, -0.0284700710326433, -0.134902626276016, 0.168471947312355, 32159, 31383, 23446, NaN
1473562976.106, -0.0255902502685785, -0.13517202436924, 0.168316647410393, 32152, 31383, 23423, NaN
1473562977.114, -0.022692484781146, -0.135216131806374, 0.168376088142395, 32148, 31381, 23441, NaN
1473562978.114, -0.0191211104393005, -0.135974749922752, 0.168427288532257, 32155, 31382, 23438, NaN
1473562979.114, -0.0153427869081497, -0.136314108967781, 0.168668016791344, 32161, 31376, 23426, NaN
1473562980.114, -0.0110896565020084, -0.136021971702576, 0.168529465794563, 32146, 31377, 23432, NaN
1473562981.114, -0.00655154976993799, -0.135677680373192, 0.168843671679497, 32151, 31379, 23434, NaN
1473562982.114, -0.00282074930146337, -0.136417165398598, 0.168301701545715, 32147, 31395, 23441, NaN
1473562983.114, -0.000456620269687846, -0.137483656406403, 0.168996185064316, 32149, 31381, 23427, NaN
1473562984.114, 0.00144998694304377, -0.136911436915398, 0.168943479657173, 32147, 31379, 23445, NaN
1473562985.114, 0.00354878813959658, -0.136702969670296, 0.168446123600006, 32152, 31386, 23437, NaN
1473562986.114, 0.00561321014538407, -0.137006491422653, 0.169669091701508, 32150, 31385, 23441, NaN
1473562987.114, 0.00641389610245824, -0.137088850140572, 0.16946816444397, 32157, 31371, 23425, NaN
1473562988.114, 0.00605554971843958, -0.137399107217789, 0.170029878616333, 32151, 31391, 23441, NaN
1473562989.114, 0.00463596312329173, -0.136529386043549, 0.169784441590309, 32143, 31393, 23433, NaN
1473562990.114, 0.00224483083002269, -0.136155396699905, 0.16968634724617, 32141, 31384, 23436, NaN
1473562991.114, 0.0005224424530752, -0.135989516973495, 0.169263124465942, 32139, 31385, 23425, NaN
1473562992.114, 0.000541801913641393, -0.135564535856247, 0.168769359588623, 32145, 31374, 23436, NaN
1473562993.114, 0.000101436009572353, -0.135392412543297, 0.169080823659897, 32160, 31379, 23438, NaN
1473562994.114, -0.000136810136609711, -0.135800987482071, 0.168265178799629, 32146, 31388, 23436, NaN
1473562995.114, 0.000663403945509344, -0.136420235037804, 0.168079420924187, 32144, 31382, 23438, NaN
1473562996.114, 0.00293134106323123, -0.136501327157021, 0.168687224388123, 32151, 31386, 23433, NaN
1473562997.114, 0.00517475698143244, -0.136904388666153, 0.168394207954407, 32152, 31370, 23443, NaN
1473562998.114, 0.00745506165549159, -0.137224480509758, 0.168447718024254, 32161, 31378, 23433, NaN
1473562999.114, 0.00861420482397079, -0.136927425861359, 0.168772965669632, 32156, 31385, 23431, NaN
1473563000.122, 0.00961378775537014, -0.136196628212929, 0.168448463082314, 32152, 31382, 23429, NaN
1473563001.122, 0.00990948267281055, -0.136421918869019, 0.168369233608246, 32140, 31375, 23432, NaN
1473563002.122, 0.0096033588051796, -0.136009186506271, 0.168161034584045, 32140, 31382, 23445, NaN
1473563003.122, 0.00884802266955376, -0.135619357228279, 0.168530657887459, 32147, 31386, 23446, NaN
1473563003.122, 0.00806252099573612, -0.13519960641861, 0.168909072875977, 32153, 31384, 23436, NaN
1473563004.13, 0.00775959342718124, -0.135109797120094, 0.169494852423668, 32137, 31387, 23441, NaN
1473563005.13, 0.0073556718416512, -0.134829878807068, 0.169968470931053, 32158, 31378, 23438, NaN
1473563006.13, 0.00673347106203437, -0.13490717113018, 0.170803904533386, 32147, 31383, 23423, NaN
1473563007.13, 0.00650284765288234, -0.134151756763458, 0.171380594372749, 32150, 31387, 23423, NaN
1473563007.13, 0.00665775872766972, -0.13460311293602, 0.171505987644196, 32144, 31392, 23433, NaN
1473563008.136, 0.00605668313801289, -0.134425967931747, 0.172011777758598, 32145, 31376, 23433, NaN
1473563009.136, 0.00473648961633444, -0.134807214140892, 0.172689452767372, 32146, 31384, 23440, NaN
1473563010.136, 0.0026765821967274, -0.135434791445732, 0.172071218490601, 32149, 31377, 23439, NaN
1473563011.136, 0.00103714549914002, -0.135852232575417, 0.172107949852943, 32155, 31383, 23430, NaN
1473563012.136, -0.00018121546600014, -0.136243999004364, 0.17147333920002, 32135, 31383, 23440, NaN
1473563013.116, -0.00100590463262051, -0.136613130569458, 0.172585174441338, 32142, 31381, 23441, NaN
1473563014.116, -0.00111976300831884, -0.136629223823547, 0.171075865626335, 32159, 31383, 23431, NaN
1473563015.116, -0.00175199133809656, -0.136707752943039, 0.170890375971794, 32148, 31378, 23430, NaN
1473563016.116, -0.00175968091934919, -0.137189224362373, 0.170656397938728, 32152, 31393, 23427, NaN
1473563017.116, -0.0026975660584867, -0.137792989611626, 0.171166390180588, 32157, 31387, 23423, NaN
1473563018.116, -0.00437715137377381, -0.137152537703514, 0.170765534043312, 32154, 31378, 23438, NaN
1473563019.116, -0.00694964732974768, -0.137581348419189, 0.171271726489067, 32151, 31388, 23432, NaN